Location: Newark
(43.9494°N, 6.8108°E)
Time: 02:44:36
(UTC+00:00)

Transit 2A Rocket - Pass Details

Date: 23 October 2019
Orbit: 594 x 909 km, 66.7° (Epoch: 16 November)

Event Time Altitude Azimuth Distance (km) Brightness Sun altitude
Exits shadow 03:08:10 36° 121° (ESE) 1,109 6.1 -30.8°
Maximum altitude 03:08:25 36° 114° (ESE) 1,101 6.1 -30.8°
Drops below altitude 10° 03:12:45 10° 48° (NE) 2,090 8.0 -30.0°
Sets 03:15:05 0° 40° (NE) 2,964 8.8 -29.6°
